Regional Weather Roundup
Issued by NWS Austin/San Antonio, TX

Home | Current Version | Previous Version | Text Only | Print | Product List | Glossary On
Versions: 1 2 3 4 5 6 7 8 9 10 11 12 13 14 15 16 17 18 19 20 21 22 23 24 25 26 27 28 29 30 31 32 33 34 35 36 37 38 39 40 41 42 43 44 45 46 47 48 49 50
174
ASUS44 KEWX 201411
RWREWX
SOUTH TEXAS REGIONAL WEATHER ROUNDUP
NATIONAL WEATHER SERVICE AUSTIN/SAN ANTONIO TX
900 AM CDT FRI SEP 20 2019

NOTE: "FAIR" INDICATED FEW OR NO CLOUDS BELOW 12,000 FEET WITH NO
SIGNIFICANT WEATHER AND/OR OBSTRUCTIONS TO VISIBILITY.

* - THESE STATIONS ARE NOT NWS OR FAA STATIONS...AND ARE NOT SUBJECT
    TO NWS AND FAA QUALITY CONTROL.

TXZ171-172-183>190-201500-
TEXAS HILL COUNTRY AND EDWARDS PLATEAU

CITY           SKY/WX    TMP DP  RH WIND       PRES   REMARKS
JUNCTION       CLOUDY    78  70  76 S10       29.98R
*LLANO         SUNNY     82  72  69 S10       30.00R
BURNET         CLOUDY    79  73  82 S9G20     30.00R
*HORSESHOE BAY SUNNY     81  72  74 S9G16     29.99R
*KERRVILLE     CLOUDY    76  71  82 CALM      30.00R
*FREDERICKSBRG PTSUNNY   77  67  72 S12       30.00S
*ROCKSPRINGS   CLOUDY    73  70  88 SE16G22   30.04R
*BOERNE        CLOUDY    73  73 100 S8        30.01R
*CASTROVILLE   CLOUDY    81  70  71 SE12G21   29.97R
HONDO          PTSUNNY   80  72  76 SE16      29.95R
*UVALDE        MOSUNNY   79  73  82 SE13      29.94R
DEL RIO        CLOUDY    81  71  71 E9G21     29.90R
LAUGHLIN AFB   CLOUDY    80  71  75 SE16      29.92R
SPOFFORD       CLOUDY    80  72  77 SE14      29.86R
*EAGLE PASS    CLOUDY    81  72  74 SE12G21   29.91R
CARRIZO SPRGS  CLOUDY    81  72  74 SE12      29.90R
$$

TXZ173-191>194-202-209-217>225-228-201500-
CENTRAL AND SOUTH CENTRAL TEXAS

CITY           SKY/WX    TMP DP  RH WIND       PRES   REMARKS
GEORGETOWN     CLOUDY    80  75  84 S12G17    29.99R
AUSTIN/BERGSTM MOSUNNY   82  76  81 S9        29.97R
AUSTIN/MABRY   PTSUNNY   82  74  76 VRB7      29.99R
*AUSTIN/EXEC   CLOUDY    81  75  83 S9        29.99R
*LAGO VISTA    CLOUDY    77  75  92 S7        30.00R
SAN MARCOS     MOSUNNY   82  76  81 S10       29.98R
NEW BRAUNFELS  CLOUDY    81  76  84 S13       29.97R
RANDOLPH AFB   MOSUNNY   80  75  83 S10       29.97R
SEGUIN         PTSUNNY   81  77  89 SE8       30.01R
KELLY FIELD    MOSUNNY   82  73  72 SE16      29.95R
SAN ANTONIO    PTSUNNY   80  74  81 S12       29.97R
STINSON FIELD  MOSUNNY   83  74  74 SE9       29.94R
PLEASANTON     SUNNY     81  72  74 S10       29.95R
*LA GRANGE     SUNNY     82  79  92 S6        29.95R HX  91
*GIDDINGS      MOSUNNY   80  77  91 CALM      29.99R
*GONZALES      SUNNY     82  77  85 SE6       29.97R HX  90
$$

TXZ163>164-176>182-195>201-210>213-226-227-235-201500-
SOUTHEAST TEXAS

CITY           SKY/WX    TMP DP  RH WIND       PRES   REMARKS
COLLEGE STN    MOSUNNY   82  77  84 SE9       29.99R HX  90
*BRYAN         PTSUNNY   83  82  98 SE6       30.00R HX  97
*CALDWELL      CLOUDY    81  76  86 S8        29.99R
*CROCKETT      PTSUNNY   81  77  89 SE6       30.04R
*BRENHAM       PTSUNNY   78  78 100 S8        29.99R
HUNTSVILLE     CLOUDY    82  76  81 VRB6      30.00R
CONROE         MOSUNNY   81  78  91 SE8       30.01R
HOUSTON BUSH   PTSUNNY   83  78  85 SE9       29.99R HX  93
HOUSTON HOBBY  PTSUNNY   83  77  82 SE10      29.99R HX  92
*HOUSTON SW AP PTSUNNY   80  78  92 S3        30.00R
PEARLAND       FAIR      84  77  79 SE9       30.00R HX  94
HOUSTON HOOKS  FAIR      81  77  88 SE7       29.99R
ELLINGTON FLD  NOT AVBL
SUGAR LAND     FAIR      81  80  97 SE9       29.98R HX  91
*HOUSTON EXEC  PTSUNNY   82  79  89 SE8       30.00R HX  93
*CLEVELAND MUN PTSUNNY   79  79 100 S6        30.02R FOG
*WHARTON       PTSUNNY   79  77  95 SE9       29.98R
*COLUMBUS      FAIR      80  76  85 SE6       29.99R
*EAGLE LAKE    SUNNY     82  80  91 SE12      29.98  HX  93
$$

TXZ214>216-236>238-201500-
THE UPPER TEXAS COAST

CITY           SKY/WX    TMP DP  RH WIND       PRES   REMARKS
*ORANGE        LGT RAIN  77  76  96 SE7       30.07R
PORT ARTHUR    RAIN      77  74  90 E7        30.02F FOG
GALVESTON      FAIR      85  80  85 SE13      30.00R HX  99
ANGLETON       PTSUNNY   79  74  84 S5        29.98S
*BAY CITY      SUNNY     78  75  91 SE3       29.97F
PALACIOS       MOSUNNY   86  77  74 SE12      29.96R HX  97
$$

TXZ229>234-239>247-201500-
TEXAS COASTAL BEND AND RIO GRANDE PLAINS

CITY           SKY/WX    TMP DP  RH WIND       PRES   REMARKS
VICTORIA       MOSUNNY   83  77  82 S9        29.95R HX  92
*BEEVILLE      SUNNY     85  77  77 MISG        N/A  HX  95
ROCKPORT       SUNNY     87  76  69 S9        29.92S HX  97
*PORT ARANSAS  PTSUNNY   85  78  79 S16       29.94S HX  98
*PORT LAVACA   SUNNY     85  80  84 SE8       29.96R HX  99
*INGLESIDE     MOSUNNY   85  77  78 S10       29.92S HX  95
CORPUS CHRISTI MOSUNNY   83  76  79 S3        29.92S HX  91
CORPUS NAS     MOSUNNY   87  79  76 SE15      29.92R HX 101
*ROBSTOWN      SUNNY     84  75  75 S8        29.93R HX  92
ALICE          SUNNY     84  75  74 S12       29.92R HX  92
KINGSVILLE NAS MOSUNNY   86  75  69 S13G20    29.92R HX  95
COTULLA        MOSUNNY   83  74  74 SE18      29.92R
LAREDO         MOSUNNY   83  74  74 SE15      29.90R
$$

TXZ248>255-201500-
DEEP SOUTH TEXAS

CITY           SKY/WX    TMP DP  RH WIND       PRES   REMARKS
BROWNSVILLE    FAIR      84  77  79 S7        29.91R HX  94
PORT ISABEL    FAIR      86  77  74 S12       29.91R HX  97
HARLINGEN      SUNNY     82  77  84 SE7       29.91R HX  90
*HEBBRONVILLE  PTSUNNY   78  74  87 CALM      29.93R
MCALLEN        SUNNY     84  75  74 SE16      29.91R HX  92
*WESLACO       SUNNY     82  75  78 S9G16     29.91
FALFURRIAS     SUNNY     84  76  76 SE9       29.91S HX  92
EDINBURG       FAIR      82  74  77 SE9       29.91R
*ZAPATA        CLOUDY    82  73  74 SE10G21   29.90R
$$

TXZ213>215-236>238-242>244-246-247-251-254-255-201500-
CMAN STATIONS

STATION/POSITION TIME  TEMP    WIND        PRES    WAVE
                       AIR SEA DIR/SP/G            HT/PER
                 (UTC) (F)     (DEG/KT/KT) (MB)    (FT/S)
SABINE PASS      1318   76 81  110/ 15/ 21 1018.3
SEA RIM ST PARK  1400   79     110/ 10/ 11 1016.5
NORTH JETTY/GLS  1318   83 80  160/ 11/ 12 1014.5
EAGLE POINT      1318   80 81  160/  6/  7 1014.6
MORGANS POINT    1330   79 79  120/  6/  8 1015.6
PORT O`CONNOR    1318   84 85  170/ 12/ 15 1013.6
PORT ARANSAS     1400   85 84  140/ 18/ 19 1013.3
MALAQUITE BEACH  1318   86 85  130/ 18/ 21 1012.7
BAFFIN BAY       1318   83 85  150/  8/ 11 1013.1
PORT ISABEL      1318   84 86  150/  9/ 12 1012.8
$$




USA.gov is the U.S. government's official web portal to all federal, state and local government web resources and services.